Location: Boiro
(42.6475°N, 8.8834°W)
Time: 02:47:16
(UTC+01:00)

Vanguard 3 - Pass Details

Date: 02 December 2021
Orbit: 508 x 3260 km, 33.3° (Epoch: 19 January)

Event Time Altitude Azimuth Distance (km) Brightness Sun altitude
Rises 07:41:36 0° 256° (WSW) 7,226 11.5 -11.8°
Reaches altitude 10° 07:46:42 10° 253° (WSW) 6,149 11.1 -10.9°
Maximum altitude 08:05:02 60° 181° (S) 2,843 10.0 -7.8°
Drops below altitude 10° 08:16:50 10° 105° (ESE) 4,139 12.5 -5.8°
Sets 08:19:33 0° 102° (ESE) 4,822 13.1 -5.3°
